This demonstration page uses our WeatherBlox Daily Observations layout. Learn more.

Left ArrowRight Arrow

39.92423, -83.80882

Hourly Observations for August 16, 2019

Temp ( °F °C ) Dew Point ( °F °C ) Humidity (%) Winds ( mph kmh ) Pressure ( in mb ) Visibility ( mi km ) Precip ( " mm )
12:56 am 00:56 Clear 66 18.9 65 18.3 96 96 N N/A 29.98 1015 10 16 N/A
1:56 am 01:56 Mostly Clear 64 17.8 64 17.8 100 100 W 3 6 29.99 1016 10 16 N/A
2:56 am 02:56 Clear 64 17.8 64 17.8 100 100 N N/A 29.98 1015 10 16 N/A
3:56 am 03:56 Clear with Mist and Fog 63 17.2 63 17.2 100 100 SW 5 7 29.98 1015 5 8 N/A
4:56 am 04:56 Mostly Clear 63 17.2 63 17.2 100 100 N N/A 29.98 1015 7 11 N/A
5:56 am 05:56 Clear with Mist and Fog 62 16.7 62 16.7 100 100 N N/A 29.98 1015 3 5 N/A
6:05 am 06:05 Clear with Mist and Fog 63 17 63 17 100 100 N N/A 29.98 1015 2 3 N/A
6:20 am 06:20 Clear with Mist and Fog 61 16 61 16 100 100 N N/A 29.99 1015 2 2 N/A
6:35 am 06:35 Clear with Mist and Fog 61 16 61 16 100 100 N N/A 29.99 1015 1 1 N/A
6:40 am 06:40 Mostly Cloudy with Fog 61 16 61 16 100 100 N N/A 29.99 1015 0 0 N/A
6:54 am 06:54 Mostly Cloudy with Fog 61 16 61 16 100 100 S 3 6 30.01 1016 1 1 N/A
6:56 am 06:56 Mostly Cloudy with Mist and Fog 60 15.6 60 15.6 100 100 S 3 6 30.00 1016 1 1 N/A
7:03 am 07:03 Partly Cloudy with Mist and Fog 61 16 61 16 100 100 S 5 7 30.00 1016 1 2 N/A
7:56 am 07:56 Sunny with Mist and Fog 64 17.8 64 17.8 100 100 N N/A 30.01 1016 2 3 N/A
8:07 am 08:07 Sunny with Mist and Fog 64 18 64 18 100 100 N N/A 30.00 1016 2 3 N/A
8:36 am 08:36 Sunny with Mist and Fog 66 19 66 19 100 100 SSW 3 6 30.01 1016 3 5 N/A
8:56 am 08:56 Sunny with Mist and Fog 69 20.6 68 20 96 96 SSW 3 6 30.01 1016 5 8 N/A
9:56 am 09:56 Sunny 73 22.8 68 20 84 84 SW 5 7 30.01 1016 10 16 N/A
10:56 am 10:56 Sunny 74 23.3 67 19.4 79 79 SW 7 11 30.02 1017 10 16 N/A
11:56 am 11:56 Sunny 78 25.6 64 17.8 62 62 SSW 5 7 30.01 1016 10 16 N/A
12:56 pm 12:56 Mostly Cloudy 79 26.1 65 18.3 62 62 SW 9 15 30.02 1017 10 16 N/A
1:56 pm 13:56 Partly Cloudy 80 26.7 63 17.2 56 56 SSW 8 13 30.01 1016 10 16 N/A
2:56 pm 14:56 Sunny 81 27.2 63 17.2 54 54 SW 10 17 30.00 1016 10 16 N/A
3:56 pm 15:56 Sunny 80 26.7 64 17.8 58 58 SW 6 9 29.99 1016 10 16 N/A
4:56 pm 16:56 Sunny 82 27.8 64 17.8 55 55 W 7 11 29.98 1015 10 16 N/A
5:56 pm 17:56 Sunny 83 28.3 64 17.8 53 53 VRB 7 11 29.96 1015 10 16 N/A
6:56 pm 18:56 Sunny 82 27.8 65 18.3 56 56 S 6 9 29.95 1014 10 16 N/A
7:56 pm 19:56 Sunny 79 26.1 67 19.4 67 67 SSE 5 7 29.94 1014 10 16 N/A
8:56 pm 20:56 Clear 74 23.3 67 19.4 79 79 SSE 6 9 29.95 1014 10 16 N/A
9:56 pm 21:56 Clear 73 22.8 67 19.4 81 81 SSE 6 9 29.96 1015 10 16 N/A
10:56 pm 22:56 Partly Cloudy 73 22.8 67 19.4 81 81 S 6 9 29.96 1015 10 16 N/A
11:56 pm 23:56 Clear 72 22.2 66 18.9 82 82 S 3 6 29.95 1014 10 16 N/A

Powered by AerisWeather